Vitoria, Spain

11:12 AM CEST on July 21, 2017 (GMT +0200)
Foronda

Weather History for LEVT - November, 2011

Change the Weather History Date:

Sunday, November 13, 2011

  Actual Average Record
Temperature  
Mean Temperature 60 °F -  
Max Temperature 64 °F 50 °F 64 °F (2002)
Min Temperature 55 °F 36 °F 32 °F (1996)
Degree Days  
Heating Degree Days 6    
Growing Degree Days 10 (Base 50)    
Moisture  
Dew Point 51 °F    
Average Humidity 75    
Maximum Humidity 82    
Minimum Humidity 59    
Precipitation  
Precipitation 0.00 in - - ()
Sea Level Pressure  
Sea Level Pressure 30.16 in    
Wind  
Wind Speed 11 mph ()    
Max Wind Speed 25 mph    
Max Gust Speed 32 mph    
Visibility 6.2 miles    
Events      
Averages and records for this station are not official NWS values.
T = Trace of Precipitation, MM = Missing Value Source: Averaged Metar Reports

Daily Weather History Graph

Daily Weather History Graph

Search for Another Location

Airport or City:

Trip Planner

Search our weather history database for the weather conditions in past years. The results will help you decide how hot, cold, wet, or windy it might be!

Date:

Astronomy

Nov. 13, 2011 Rise Set
Actual Time 7:59 AM CET 5:49 PM CET
Civil Twilight 7:29 AM CET 6:20 PM CET
Nautical Twilight 6:55 AM CET 6:54 PM CET
Astronomical Twilight 6:22 AM CET 7:27 PM CET
Moon 7:42 PM CET (11/13) 10:23 AM CET (11/13)
Length of Visible Light 10h 50m
Length of Day
9h 50m
Waning Gibbous, 94% of the Moon is Illuminated
Nov 13
Waning Gibbous
Nov 18
Last Quarter
Nov 25
New
Dec 2
First Quarter
Dec 10
Full

Hourly Weather History & Observations

Time (CET) Temp. Dew Point Humidity Pressure Visibility Wind Dir Wind Speed Gust Speed Precip Events Conditions
12:00 AM 59.0 °F 53.6 °F 82% 30.18 in 6.2 mi East 9.2 mph - N/A   Scattered Clouds
12:30 AM 57.2 °F 51.8 °F 82% 30.18 in 6.2 mi East 6.9 mph - N/A   Scattered Clouds
1:00 AM 57.2 °F 51.8 °F 82% 30.18 in 6.2 mi ESE 9.2 mph - N/A   Scattered Clouds
1:30 AM 57.2 °F 51.8 °F 82% 30.18 in 6.2 mi SE 11.5 mph - N/A   Scattered Clouds
2:00 AM 57.2 °F 50.0 °F 77% 30.18 in 6.2 mi ESE 9.2 mph - N/A   Scattered Clouds
2:30 AM 57.2 °F 50.0 °F 77% 30.18 in 6.2 mi SE 10.4 mph - N/A   Scattered Clouds
3:00 AM 57.2 °F 50.0 °F 77% 30.18 in 6.2 mi ESE 12.7 mph - N/A   Scattered Clouds
3:30 AM 55.4 °F 50.0 °F 82% 30.18 in 6.2 mi ESE 11.5 mph - N/A   Scattered Clouds
4:00 AM 57.2 °F 50.0 °F 77% 30.18 in 6.2 mi SE 12.7 mph - N/A   Scattered Clouds
4:30 AM 57.2 °F 50.0 °F 77% 30.15 in 6.2 mi SE 18.4 mph 29.9 mph N/A   Scattered Clouds
5:00 AM 57.2 °F 50.0 °F 77% 30.15 in 6.2 mi SE 23.0 mph - N/A   Scattered Clouds
5:30 AM 55.4 °F 50.0 °F 82% 30.15 in 6.2 mi SE 21.9 mph - N/A   Scattered Clouds
6:00 AM 55.4 °F 50.0 °F 82% 30.15 in 6.2 mi SE 25.3 mph - N/A   Scattered Clouds
6:30 AM 55.4 °F 50.0 °F 82% 30.15 in 6.2 mi SE 25.3 mph - N/A   Scattered Clouds
7:00 AM 55.4 °F 50.0 °F 82% 30.15 in 6.2 mi ESE 16.1 mph - N/A   Scattered Clouds
7:30 AM 55.4 °F 48.2 °F 77% 30.15 in 6.2 mi ESE 15.0 mph - N/A   Scattered Clouds
8:00 AM 55.4 °F 48.2 °F 77% 30.15 in 6.2 mi ESE 13.8 mph - N/A   Scattered Clouds
8:30 AM 57.2 °F 48.2 °F 72% 30.15 in 6.2 mi SE 17.3 mph - N/A   Scattered Clouds
9:00 AM 57.2 °F 48.2 °F 72% 30.15 in 6.2 mi ESE 13.8 mph - N/A   Scattered Clouds
9:30 AM 57.2 °F 50.0 °F 77% 30.15 in 6.2 mi ESE 10.4 mph - N/A   Scattered Clouds
10:00 AM 57.2 °F 50.0 °F 77% 30.18 in 6.2 mi SE 12.7 mph 26.5 mph N/A   Scattered Clouds
10:30 AM 59.0 °F 50.0 °F 72% 30.18 in 6.2 mi SE 16.1 mph - N/A   Partly Cloudy
11:00 AM 59.0 °F 51.8 °F 77% 30.18 in 6.2 mi ESE 17.3 mph - N/A   Partly Cloudy
11:30 AM 60.8 °F 51.8 °F 72% 30.18 in 6.2 mi SE 16.1 mph 27.6 mph N/A   Partly Cloudy
12:00 PM 62.6 °F 50.0 °F 63% 30.18 in 6.2 mi SE 16.1 mph 32.2 mph N/A   Partly Cloudy
12:30 PM 60.8 °F 50.0 °F 68% 30.15 in 6.2 mi SE 16.1 mph - N/A   Partly Cloudy
1:00 PM 60.8 °F 50.0 °F 68% 30.15 in 6.2 mi SE 16.1 mph - N/A   Partly Cloudy
1:30 PM 64.4 °F 50.0 °F 59% 30.15 in 6.2 mi SE 16.1 mph - N/A   Partly Cloudy
2:00 PM 62.6 °F 51.8 °F 68% 30.15 in 6.2 mi SE 13.8 mph - N/A   Partly Cloudy
2:30 PM 60.8 °F 50.0 °F 68% 30.15 in 6.2 mi ESE 11.5 mph - N/A   Partly Cloudy
3:00 PM 62.6 °F 51.8 °F 68% 30.15 in 6.2 mi ESE 9.2 mph - N/A   Partly Cloudy
4:00 PM 60.8 °F 51.8 °F 72% 30.15 in 6.2 mi East 10.4 mph - N/A   Partly Cloudy
4:30 PM 60.8 °F 51.8 °F 72% 30.15 in 6.2 mi East 9.2 mph - N/A   Scattered Clouds
5:00 PM 60.8 °F 51.8 °F 72% 30.15 in 6.2 mi East 9.2 mph - N/A   Scattered Clouds
5:30 PM 60.8 °F 50.0 °F 68% 30.15 in 6.2 mi SE 4.6 mph 16.1 mph N/A   Scattered Clouds
6:00 PM 60.8 °F 51.8 °F 72% 30.15 in 6.2 mi SE 15.0 mph - N/A   Scattered Clouds
6:30 PM 60.8 °F 51.8 °F 72% 30.15 in 6.2 mi East 9.2 mph - N/A   Partly Cloudy
7:00 PM 59.0 °F 51.8 °F 77% 30.18 in 6.2 mi ENE 10.4 mph - N/A   Scattered Clouds
7:30 PM 59.0 °F 51.8 °F 77% 30.18 in 6.2 mi ENE 12.7 mph - N/A   Scattered Clouds
8:00 PM 59.0 °F 51.8 °F 77% 30.15 in 6.2 mi East 8.1 mph - N/A   Scattered Clouds
8:30 PM 59.0 °F 51.8 °F 77% 30.15 in 6.2 mi ENE 10.4 mph - N/A   Scattered Clouds
9:00 PM 59.0 °F 51.8 °F 77% 30.12 in 6.2 mi ESE 8.1 mph - N/A   Scattered Clouds
9:30 PM 59.0 °F 51.8 °F 77% 30.15 in 6.2 mi ENE 3.5 mph - N/A   Scattered Clouds
10:00 PM 60.8 °F 51.8 °F 72% 30.15 in 6.2 mi East 8.1 mph - N/A   Scattered Clouds
10:30 PM 59.0 °F 51.8 °F 77% 30.12 in 6.2 mi ESE 6.9 mph - N/A   Scattered Clouds
11:00 PM 59.0 °F 51.8 °F 77% 30.12 in 6.2 mi East 8.1 mph - N/A   Partly Cloudy
11:30 PM 59.0 °F 51.8 °F 77% 30.12 in 6.2 mi East 6.9 mph - N/A   Partly Cloudy